Theta_e
302 299 297 299 300 299 298 297 297 300 301 297 299 299 302 305 305 305 306 307 308 308 311 313 316 317 317 317 317 317 318 319 320 320 318 318 317 319 320 320 320 319 318 316
299 296 299 300 299 298 298 297 297 299 298 297 299 297 301 302 303 305 306 307 308 309 310 311 313 315 316 316 316 317 316 318 319 319 318 318 318 319 319 320 319 319 317 316
296 297 299 298 297 296 298 296 296 294 298 299 296 299 300 300 300 301 303 306 307 309 309 310 310 313 315 315 316 316 317 317 317 318 318 317 317 317 316 317 317 317 317 316
297 298 296 297 296 297 294 297 295 295 295 292 297 292 299 300 304 306 307 306 305 307 308 311 311 311 314 315 317 317 317 317 317 318 316 315 314 313 316 317 318 318 317 316
296 296 296 296 296 298 296 297 296 296 294 293 293 292 298 301 301 303 305 306 307 306 306 308 310 311 313 315 316 317 318 317 318 317 317 317 315 317 319 318 318 318 317 317
298 299 299 298 298 297 297 296 295 296 294 290 291 292 296 298 299 301 303 305 306 307 307 306 309 311 312 315 316 317 316 316 317 317 317 317 317 318 317 317 316 317 316 316
295 295 297 298 296 298 297 295 291 289 291 290 292 292 296 300 300 301 301 304 306 307 307 307 306 307 309 312 314 315 316 315 316 316 316 317 318 321 319 318 317 316 315 315
292 291 294 297 297 295 295 294 290 284 287 289 292 290 296 300 301 301 304 305 306 307 308 308 306 307 309 310 312 313 313 314 315 316 316 318 319 319 320 319 318 317 316 316
292 291 296 295 297 296 293 292 294 290 289 288 293 294 299 301 301 301 303 304 305 306 307 308 308 306 308 309 310 311 312 313 315 315 317 317 317 317 318 319 319 319 318 316
295 290 293 294 297 296 295 297 292 293 285 284 290 290 295 299 301 304 303 303 304 306 307 307 309 309 308 309 310 311 311 312 314 315 315 316 316 317 317 318 317 317 318 317
295 293 292 294 294 294 293 293 293 293 291 288 287 293 300 302 302 301 302 304 305 306 307 308 308 309 309 310 310 310 310 310 311 313 314 315 315 316 316 316 317 316 317 316
295 294 291 293 294 295 295 295 295 291 289 291 290 291 299 301 301 303 303 305 306 307 307 308 308 309 310 310 310 309 310 310 311 312 313 313 315 315 315 315 316 316 315 316
298 293 289 292 292 293 292 293 294 292 293 290 288 292 299 301 303 304 304 304 305 306 306 307 308 308 310 310 309 309 310 310 311 311 311 312 313 314 314 314 315 315 314 314
298 293 291 288 289 292 290 291 292 293 290 291 291 293 298 300 301 302 302 303 304 304 304 305 306 307 309 310 309 309 309 310 311 311 311 311 312 313 314 314 314 313 313 313
297 292 292 293 294 294 293 292 293 290 293 290 293 293 297 299 299 300 302 302 303 304 305 305 305 307 308 309 309 308 309 310 310 310 310 310 312 313 313 313 314 313 313 312
295 290 292 290 294 293 291 294 294 294 294 293 293 293 298 298 300 299 299 299 299 301 303 305 306 307 307 308 308 308 308 309 310 309 309 310 311 312 313 313 313 313 313 312
289 290 290 286 292 291 287 292 294 295 297 295 291 293 295 294 295 297 297 297 297 299 301 302 304 306 307 308 308 308 308 308 308 308 309 310 310 310 312 312 312 313 313 312
287 289 290 286 288 280 292 297 296 294 293 294 292 293 294 294 296 299 299 298 297 299 300 302 303 305 307 309 309 309 309 308 307 308 309 310 310 310 311 311 312 312 313 314
290 287 285 283 284 288 290 293 293 293 289 292 291 293 294 294 295 299 300 298 298 299 301 302 303 304 305 307 308 308 308 309 309 308 308 309 310 310 311 312 313 313 313 314
292 291 286 284 279 279 291 295 296 297 287 292 293 292 292 293 288 293 298 298 298 299 300 301 302 303 304 305 306 307 308 309 309 309 309 310 310 310 310 313 314 314 313 314
285 286 283 284 282 286 292 292 297 286 286 291 292 292 292 290 293 296 297 297 298 299 299 301 302 302 303 304 305 305 306 307 308 309 309 309 310 310 310 312 314 313 313 312
281 280 280 282 279 277 293 292 285 288 291 291 292 292 292 294 295 295 296 296 297 298 299 300 300 302 303 304 304 304 304 307 308 308 308 309 310 309 308 310 312 311 311 311
280 285 282 283 283 291 292 291 292 292 291 292 292 294 294 294 293 294 295 296 297 297 298 299 299 300 302 304 303 302 305 306 307 307 308 309 310 310 309 309 309 309 310 309
285 288 284 284 286 287 289 291 292 293 292 294 294 294 294 293 294 294 295 295 296 298 299 299 299 299 300 303 303 303 303 305 305 305 308 309 309 309 310 308 308 308 308 308
286 287 284 284 287 288 290 291 292 292 293 293 294 294 293 294 294 294 295 295 296 298 299 300 299 300 301 303 303 304 303 303 303 304 306 308 309 309 309 309 309 308 309 309
288 285 283 283 288 288 288 291 293 292 292 294 293 293 294 295 294 295 296 297 297 297 298 299 299 300 301 302 302 303 304 302 302 303 304 306 308 309 309 309 309 305 304 304
Wind_Speed
2 6 6 4 3 4 5 7 10 11 4 6 14 21 24 18 17 18 18 16 16 16 15 17 18 18 17 16 17 17 17 17 13 11 11 10 10 9 8 9 11 11 9 9
5 7 1 0 2 4 5 9 11 9 2 7 15 25 23 12 13 17 17 17 19 17 18 16 18 19 20 19 19 18 18 17 15 11 10 9 9 9 9 9 10 12 11 11
8 3 2 2 3 6 7 9 11 10 12 7 14 9 6 4 2 2 9 13 14 16 17 17 19 20 19 21 21 19 19 18 17 16 10 8 5 4 7 8 8 10 13 12
6 2 4 5 7 7 9 1 4 8 10 7 8 6 7 10 10 14 12 7 7 13 14 14 17 19 22 20 18 19 19 19 17 19 14 15 12 11 9 9 8 9 13 13
2 2 4 5 2 5 2 1 4 4 8 9 3 5 5 7 13 20 17 14 9 5 8 14 16 17 18 17 18 18 19 19 18 18 17 13 15 11 9 7 9 10 9 13
14 1 4 4 2 1 1 5 4 2 3 5 4 4 9 10 14 15 17 19 15 9 6 7 13 14 15 16 16 17 19 19 19 18 20 19 17 14 11 10 9 8 8 8
3 3 1 3 6 4 5 7 4 4 3 3 2 5 8 8 10 11 14 16 18 18 15 10 7 13 14 17 17 16 18 20 20 20 19 20 19 16 16 14 11 11 9 9
4 4 1 1 4 3 1 4 4 4 3 4 3 3 6 3 3 6 11 14 14 18 19 16 8 9 12 14 16 18 19 19 20 20 20 18 18 12 12 15 12 11 11 10
3 2 2 1 1 3 5 5 3 2 0 5 1 3 2 6 7 1 10 17 19 20 20 18 13 4 9 11 14 16 17 18 20 21 17 18 17 18 15 17 14 11 12 10
2 6 1 2 2 3 4 4 3 3 3 4 3 4 6 9 4 6 17 21 19 20 22 18 15 9 5 9 11 14 15 17 18 18 17 17 19 19 17 15 17 15 13 13
2 4 4 2 7 3 5 4 2 3 3 3 4 1 4 6 2 11 16 18 19 20 21 19 15 14 8 6 9 12 14 16 16 17 17 17 17 18 17 16 16 16 14 14
4 5 6 5 4 2 2 3 6 4 4 1 4 7 5 3 3 12 19 21 21 20 19 18 16 15 12 8 8 11 13 15 16 16 16 18 17 17 17 18 17 16 17 16
7 3 5 6 4 2 4 2 2 1 2 11 7 4 2 4 17 18 23 26 23 21 21 20 18 17 16 14 11 9 12 15 15 15 16 16 17 17 18 19 17 17 17 17
1 4 8 10 6 7 7 3 3 7 6 9 15 19 19 22 24 27 24 21 21 20 20 19 19 19 18 17 14 11 11 12 13 15 16 17 18 18 18 18 18 18 18 18
6 6 5 9 11 11 14 14 13 14 16 16 16 20 20 21 19 16 18 18 18 19 21 20 20 19 20 19 17 14 12 11 12 14 16 18 18 17 17 17 17 17 18 17
6 6 10 16 15 15 19 18 18 19 20 23 23 24 14 13 13 16 14 16 18 19 20 21 21 22 22 21 18 17 14 11 9 13 16 16 16 17 17 16 17 17 17 19
7 6 8 17 9 14 22 15 22 22 19 14 17 8 11 13 16 13 14 17 19 20 21 22 21 21 21 21 20 18 17 14 10 12 14 15 15 16 16 16 17 17 18 18
12 11 8 12 12 17 5 5 6 7 10 9 8 8 12 14 18 14 10 19 20 20 22 21 20 21 21 20 20 20 17 14 11 11 13 14 15 17 17 16 16 17 16 17
17 11 7 7 10 20 23 16 13 7 8 9 10 12 15 17 19 7 11 20 19 20 19 18 18 20 20 20 20 20 18 16 13 12 12 12 13 14 15 16 16 16 15 15
8 13 11 9 6 8 11 8 13 10 6 12 13 16 19 21 15 14 23 21 21 21 19 21 21 19 19 20 19 19 19 17 17 15 13 12 12 13 15 14 14 14 14 15
4 5 10 10 10 13 11 17 8 9 9 23 18 20 22 18 16 22 21 22 21 20 22 21 21 19 18 18 19 19 18 18 18 16 15 13 12 13 14 13 12 13 13 13
7 6 5 7 11 15 10 9 12 17 21 18 21 22 22 19 20 21 23 23 23 22 21 21 18 20 21 18 17 20 18 19 18 17 16 15 12 9 9 12 11 12 12 13
9 9 9 10 11 24 28 25 22 21 22 25 22 20 20 22 24 24 22 25 22 24 20 19 18 19 20 20 16 18 18 18 18 18 17 15 13 10 8 9 10 9 11 10
17 15 15 16 20 25 25 26 26 25 23 21 21 24 25 27 25 25 23 21 20 21 21 20 20 19 19 20 19 17 19 17 18 19 18 14 13 11 9 6 7 8 9 10
14 15 18 21 25 24 25 23 23 23 25 26 25 25 26 26 25 25 22 23 21 20 20 20 19 18 19 19 21 18 16 16 17 18 17 15 10 11 10 8 7 8 10 10
19 20 15 17 24 23 25 27 29 27 27 27 27 27 25 25 24 25 21 20 20 20 20 19 23 21 19 18 20 21 17 16 17 16 13 13 11 10 8 9 9 12 14 9
Wind_Direction
57 263 257 327 284 323 294 274 277 286 318 279 271 277 279 275 253 245 243 237 221 220 222 213 205 204 205 203 205 205 200 202 198 201 203 210 214 216 221 221 225 223 221 218
221 256 342 312 218 259 263 286 292 295 244 283 299 290 292 299 260 242 244 236 231 230 226 213 206 202 204 203 203 204 204 201 200 201 204 207 213 223 220 218 219 220 218 217
267 54 112 261 249 252 256 275 307 302 318 258 309 273 355 49 348 268 253 255 254 233 222 209 203 203 202 207 203 203 202 201 200 201 199 206 209 222 213 216 218 216 218 216
268 61 247 243 256 234 278 42 276 301 321 323 5 310 47 20 64 38 28 26 268 243 240 232 207 205 205 208 204 203 200 201 200 198 200 204 209 214 215 216 212 214 214 216
63 224 227 256 284 199 354 285 284 287 289 307 127 263 54 27 11 5 6 5 2 356 260 234 226 214 212 203 204 204 203 202 199 200 203 206 217 218 216 211 212 212 209 217
268 359 265 293 101 244 92 257 240 241 239 234 41 314 72 21 354 26 44 42 40 19 341 267 239 216 210 203 204 201 202 203 200 201 203 208 213 215 211 210 212 214 209 205
236 204 241 252 246 183 233 279 275 220 205 21 59 285 33 44 62 51 39 40 41 31 20 352 249 217 212 200 200 202 205 204 200 201 207 209 213 214 213 212 211 210 209 209
306 183 199 104 267 344 168 293 308 297 330 332 122 239 106 169 129 59 46 40 27 20 16 15 347 242 221 212 206 201 201 208 204 203 209 211 212 215 215 216 215 216 216 212
273 214 117 4 326 294 129 213 14 278 101 261 331 177 161 218 225 205 32 15 15 11 6 6 10 297 228 218 217 215 212 211 207 206 206 210 210 215 216 217 215 214 218 214
26 280 76 94 192 90 292 115 199 187 269 271 197 258 146 208 224 343 6 4 1 359 357 355 353 356 259 235 220 217 222 221 217 211 210 211 210 214 218 216 215 213 215 212
281 262 128 216 200 193 159 206 207 303 272 290 306 160 159 184 8 352 352 359 356 350 349 350 347 347 328 265 226 225 221 221 223 216 216 217 215 213 214 217 216 214 214 211
3 302 264 265 103 5 289 277 244 256 166 278 314 271 158 194 38 339 345 346 348 347 346 353 351 347 344 321 264 234 218 221 221 221 219 220 221 216 215 217 216 213 213 211
347 219 280 188 154 145 247 186 243 27 287 241 259 241 71 255 309 337 340 344 343 349 354 349 351 351 348 341 317 268 242 226 219 216 218 221 219 218 219 220 217 213 214 213
226 282 284 289 12 339 286 261 264 253 255 262 241 272 293 309 319 333 341 336 352 351 352 353 349 347 345 339 331 305 273 251 234 220 217 220 222 218 218 218 216 214 213 214
10 274 304 298 299 295 286 283 276 250 261 262 280 283 295 313 342 340 345 8 2 359 357 356 351 346 344 343 339 325 304 276 248 233 223 219 218 220 220 221 219 217 216 218
341 282 305 280 287 287 281 274 267 262 265 265 271 275 6 4 357 0 17 8 2 355 351 348 348 349 348 343 336 328 313 301 271 246 240 237 229 217 215 217 216 215 213 216
281 286 297 277 274 300 285 260 247 246 245 287 275 16 4 359 352 346 8 7 358 350 345 343 342 340 341 341 337 329 322 307 282 260 254 246 235 233 222 216 214 212 213 214
252 256 264 281 291 262 317 30 46 72 74 61 64 22 7 349 328 302 6 356 347 343 340 338 336 334 335 335 340 334 325 316 294 272 263 255 244 234 230 229 227 225 222 219
231 250 266 257 250 284 295 288 277 246 94 43 10 353 345 347 324 322 334 346 334 331 329 327 327 325 325 329 335 335 332 329 317 297 279 267 260 253 245 234 221 217 221 222
203 219 241 265 262 265 94 359 350 310 184 12 336 325 328 329 318 311 319 326 322 322 320 321 323 321 323 327 329 331 337 337 335 329 310 291 269 258 250 242 234 225 218 220
163 194 235 238 253 266 5 355 322 255 2 330 324 313 311 309 302 310 309 308 313 311 314 317 313 315 318 323 323 324 327 334 336 322 312 301 284 265 255 254 238 233 232 226
283 268 250 254 244 261 59 358 8 313 307 308 309 308 302 301 303 303 303 309 310 309 309 311 310 310 314 318 318 316 319 324 326 325 314 306 297 282 267 254 246 239 233 229
260 244 283 274 289 315 313 304 305 302 305 311 307 303 303 299 304 303 302 304 306 306 305 303 301 302 305 308 309 309 311 321 321 320 319 314 307 293 272 259 250 242 235 236
267 270 265 277 265 269 281 295 298 296 296 295 294 302 305 298 300 302 302 299 296 297 301 300 296 291 294 298 302 300 308 314 314 312 315 314 304 301 286 255 243 239 233 229
266 276 266 272 274 279 277 282 292 296 298 296 293 293 294 294 292 292 289 289 288 286 290 292 292 289 285 288 295 299 305 309 307 308 307 306 300 295 291 272 251 235 237 231
252 260 259 271 281 289 292 291 295 295 292 290 293 293 289 286 285 286 283 282 284 284 285 280 286 286 285 282 287 295 299 301 301 301 301 302 303 295 286 282 280 229 248 261